Location: Unspecified
(0.0000°N, 0.0000°E)
Time: 14:41:04
(UTC+00:00)

AO-73 - Visible Passes

Search period start: 25 September 2021 00:00
Search period end: 05 October 2021 00:00
Orbit: 581 x 661 km, 97.6° (Epoch: 24 September)

Date Brightness Start Highest point End Pass type
(mag) Time Alt. Az. Time Alt. Az. Time Alt. Az.
25 Sep ? 03:47:02 10° NE 03:50:35 29° ESE 03:54:09 10° SSE visible
26 Sep ? 04:04:12 10° NNE 04:08:12 54° E 04:12:14 10° S visible
27 Sep ? 04:21:44 10° N 04:25:50 79° W 04:29:57 10° SSW visible
28 Sep ? 04:39:36 10° N 04:43:27 40° W 04:47:20 10° SSW visible
29 Sep ? 03:23:22 10° ENE 03:25:11 13° ESE 03:26:59 10° SE visible
29 Sep ? 04:57:53 10° NNW 05:01:05 22° WNW 05:04:18 10° SW visible
30 Sep ? 03:39:32 10° NE 03:42:47 23° ESE 03:46:03 10° SSE visible
30 Sep ? 05:17:00 10° NW 05:18:42 12° WNW 05:20:25 10° WSW visible
01 Oct ? 03:56:31 10° NNE 04:00:24 41° ESE 04:04:18 10° S visible
02 Oct ? 04:13:55 10° NNE 04:18:01 81° ESE 04:22:10 10° S visible
03 Oct ? 04:31:38 10° N 04:35:38 53° WNW 04:39:41 10° SSW visible
04 Oct ? 04:49:43 10° NNW 04:53:15 28° W 04:56:50 10° SW visible
